Flag Weather past 2 weeks in Lippstadt, North Rhine-Westphalia, Germany

Now
52 °F

Sunny.


Feels Like: 51 °F
Forecast: 34 / 50 °F
Wind: 5 mph from Northeast

Location: Paderborn / Lippstadt

Current Time: Nov 23, 2014 at 12:11:43 PM

Latest Report: Nov 23, 2014 at 11:50 AM


Visibility: 10 mi

Pressure: 30.09 "Hg

Humidity: 72%

Dew point: 43 °F

Location of LippstadtLocation

Historic Weather in Lippstadt — Graph

°F

Lippstadt temperature yesterday

Maximum temperature yesterday: 54 °F (at 2:20 PM)
Minimum temperature yesterday: 37 °F (at 1:20 AM)
Average temperature yesterday: 43 °F

Past Weeks' High & Low Weather Summary

 TemperatureHumidityPressure
High57 °F (Nov 12, 11:50 AM)100% (Nov 12, 3:50 AM)30.33 "Hg (Nov 12, 3:50 AM)
Low36 °F (Nov 21, 8:20 AM)54% (Nov 8, 1:20 PM)29.50 "Hg (Nov 16, 5:50 AM)
Average46 °F88%29.88 "Hg
* Reported Nov 8 10:20 AM — Nov 23 10:50 AM, Lippstadt, Weather by CustomWeather, © 2014

Note: Actual official high and low records may vary slightly from our data, if they occured in-between our weather recording intervals... More about our weather records

Advertising

Lippstadt weather history for previous 24 hours

 ConditionsComfort  
Time TempWeatherWind HumidityBarometerVisibility
10:50 AM
Nov 23
48 °FSunny.7 mph76%30.09 "Hg10 mi
10:20 AM45 °FSunny.14 mph87%30.12 "Hg10 mi
9:50 AM43 °FSunny.17 mph93%30.12 "Hg10 mi
9:20 AM45 °FSunny.9 mph87%30.12 "Hg10 mi
8:50 AM43 °FSunny.12 mph93%30.12 "Hg10 mi
8:20 AM43 °FSunny.13 mph100%30.12 "Hg10 mi
7:50 AM45 °FClear.12 mph93%30.12 "Hg10 mi
7:20 AM48 °FClear.9 mph87%30.09 "Hg10 mi
6:50 AM48 °FClear.7 mph87%30.09 "Hg10 mi
6:20 AM46 °FClear.6 mph100%30.09 "Hg10 mi
5:50 AM45 °FClear.2 mph93%30.09 "Hg10 mi
5:20 AM45 °FPassing clouds.6 mph93%30.09 "HgN/A
4:50 AM45 °FClear.15 mph100%30.09 "Hg10 mi
4:20 AM43 °FClear.13 mph93%30.12 "Hg10 mi
3:50 AM43 °FClear.12 mph93%30.12 "Hg10 mi
3:20 AM43 °FClear.13 mph100%30.12 "Hg10 mi
12:50 AM46 °FClear.8 mph93%30.09 "Hg10 mi
12:20 AM43 °FClear.3 mph100%30.12 "Hg10 mi
11:50 PM
Nov 22
41 °FClear.2 mph100%30.09 "Hg10 mi
11:20 PM41 °FClear.5 mph100%30.09 "Hg10 mi
10:50 PM41 °FClear.1 mph100%30.09 "Hg10 mi
10:20 PM41 °FClear.1 mph100%30.09 "Hg10 mi
9:50 PM43 °FClear.1 mph93%30.09 "Hg10 mi
9:20 PM43 °FPassing clouds.5 mph93%30.09 "HgN/A
8:50 PM43 °FClear.5 mph100%30.09 "Hg10 mi
8:20 PM43 °FClear.5 mph100%30.09 "Hg10 mi
7:50 PM43 °FClear.3 mph93%30.09 "Hg10 mi
7:20 PM41 °FClear.1 mph100%30.09 "Hg10 mi
6:50 PM41 °FClear.2 mph100%30.09 "Hg10 mi
6:20 PM43 °FClear.7 mph93%30.09 "Hg10 mi
5:50 PM43 °FClear.8 mph93%30.09 "Hg10 mi
5:20 PM43 °FClear.8 mph93%30.09 "Hg10 mi
4:50 PM45 °FClear.9 mph87%30.09 "Hg10 mi
4:20 PM46 °FSunny.10 mph82%30.09 "Hg10 mi
3:50 PM48 °FSunny.8 mph76%30.09 "Hg10 mi
3:20 PM50 °FSunny.7 mph71%30.07 "Hg10 mi
2:50 PM52 °FSunny.8 mph67%30.07 "Hg10 mi
2:20 PM54 °FSunny.7 mph67%30.07 "Hg10 mi
1:20 PM52 °FSunny.7 mph67%30.07 "Hg10 mi
12:50 PM52 °FSunny.8 mph67%30.09 "Hg10 mi
12:20 PM52 °FSunny.7 mph62%30.09 "Hg10 mi
Weather by CustomWeather, © 2014

See weather overviewHow to use our weather pages